Flag for Bulgaria Weather past 2 weeks in Plovdiv, Bulgaria

Now
48 °F

Clear.


Feels Like: 48 °F
Forecast: 45 / 76 °F
Wind: No wind

Location: Plovdiv Airport


UV Index: 5 (Moderate)

Visibility: 10 mi


Pressure: 29.98 "Hg

Humidity: 100%

Dew point: 48 °F

Location of PlovdivLocation

Historic Weather in Plovdiv

°F

Plovdiv temperature yesterday

Maximum temperature yesterday: 64 °F (at 5:00 PM)
Minimum temperature yesterday: 45 °F (at 4:00 AM)
Average temperature yesterday: 53 °F

Past Weeks' High & Low Weather Summary

 TemperatureHumidityPressure
High73 °F (Apr 9, 4:00 PM)100% (Apr 6, 7:00 AM)30.12 "Hg (Apr 6, 7:00 AM)
Low37 °F (Apr 14, 6:00 AM)33% (Apr 9, 6:00 PM)29.56 "Hg (Apr 18, 2:00 PM)
Average52 °F81%29.90 "Hg
* Reported Apr 6 1:00 AM — Apr 21 1:00 AM, Plovdiv, Weather by CustomWeather, © 2014

Note: Actual official high and low records may vary slightly from our data, if they occured in-between our weather recording intervals... More about our weather records

Advertising

Historic Weather Conditions — Data for Previous 24 hours

 ConditionsComfort  
Time TempWeatherWind HumidityBarometerVisibility
1:00 AM
Apr 21
48 °FClear.No wind100%29.98 "Hg10 mi
12:00 AM46 °FClear.1 mph100%29.98 "Hg10 mi
11:00 PM
Apr 20
50 °FClear.6 mph94%29.95 "Hg10 mi
10:00 PM55 °FPassing clouds.8 mph82%29.95 "HgN/A
9:00 PM55 °FSunny.8 mph88%29.95 "Hg10 mi
8:00 PM55 °FBroken clouds.8 mph88%29.92 "HgN/A
7:00 PM63 °FScattered clouds.3 mph68%29.89 "HgN/A
6:00 PM64 °FScattered clouds.1 mph60%29.86 "HgN/A
5:00 PM64 °FScattered clouds.3 mph60%29.86 "HgN/A
4:00 PM61 °FPartly sunny.1 mph72%29.89 "HgN/A
3:00 PM55 °FSprinkles. Partly sunny.No wind88%29.89 "HgN/A
2:00 PM57 °FThunderstorms. Partly sunny.1 mph82%29.92 "HgN/A
1:00 PM57 °FScattered clouds.3 mph82%29.92 "HgN/A
12:00 PM55 °FDrizzle. More clouds than sun.1 mph82%29.92 "HgN/A
11:00 AM54 °FPartly sunny.3 mph88%29.95 "HgN/A
10:00 AM54 °FScattered clouds.1 mph88%29.92 "HgN/A
9:00 AM52 °FBroken clouds.No wind94%29.92 "HgN/A
8:00 AM48 °FLight rain. Broken clouds.1 mph100%29.92 "Hg4 mi
7:00 AM46 °FPassing clouds.No wind100%29.92 "Hg3 mi
6:00 AM46 °FFog.No wind100%29.89 "Hg3 mi
5:00 AM46 °FFog.No wind100%29.89 "Hg2 mi
4:00 AM45 °FFog.1 mph100%29.89 "Hg0 mi
3:00 AM46 °FPassing clouds.1 mph100%29.86 "Hg3 mi
2:00 AM46 °FPassing clouds.3 mph100%29.86 "Hg5 mi
Weather by CustomWeather, © 2014

See weather overview